Terminal Aerodrome Forecast
Issued by NWS Huntsville, AL

Home | Current Version | Previous Version | Text Only | Print | Product List | Glossary On
Versions: 1 2 3 4 5 6 7 8 9 10 11 12 13 14 15 16 17 18 19 20 21 22 23 24 25 26 27 28 29
000
FTUS44 KHUN 162336
TAFHSV
TAF
KHSV 162336Z 1700/1724 36006KT P6SM SCT020 OVC035
     FM170400 00000KT P6SM OVC020
     FM171400 34006KT P6SM BKN030
     FM171700 35008KT P6SM SCT040=

USA.gov is the U.S. government's official web portal to all federal, state and local government web resources and services.